Time,TemperatureF,DewpointF,PressureIn,WindDirection,WindDirectionDegrees,WindSpeedMPH,WindSpeedGustMPH,Humidity,HourlyPrecipIn,Conditions,Clouds,dailyrainin,SoftwareType,DateUTC
2013-11-16 00:03:00,48.5,48.0,29.54,NW,323,0.0,0.0,96,0.00,,,0.00,weatherlink.com 1.10,2013-11-16 06:03:00,
2013-11-16 00:18:00,48.5,48.0,29.54,WSW,254,0.0,1.0,96,0.00,,,0.00,weatherlink.com 1.10,2013-11-16 06:18:00,
2013-11-16 00:33:00,48.6,48.0,29.53,NNE,27,0.0,1.0,96,0.00,,,0.00,weatherlink.com 1.10,2013-11-16 06:33:00,
2013-11-16 00:48:00,48.7,48.0,29.53,SE,142,0.0,0.0,96,0.00,,,0.00,weatherlink.com 1.10,2013-11-16 06:48:00,
2013-11-16 01:03:00,48.8,48.0,29.53,SW,216,0.0,1.0,96,0.00,,,0.00,weatherlink.com 1.10,2013-11-16 07:03:00,
2013-11-16 01:18:00,48.9,48.0,29.53,North,5,0.0,1.0,96,0.00,,,0.00,weatherlink.com 1.10,2013-11-16 07:18:00,
2013-11-16 01:33:00,49.0,48.0,29.52,SW,221,0.0,1.0,96,0.00,,,0.00,weatherlink.com 1.10,2013-11-16 07:33:00,
2013-11-16 01:48:00,49.0,48.0,29.52,North,360,0.0,0.0,96,0.00,,,0.00,weatherlink.com 1.10,2013-11-16 07:48:00,
2013-11-16 02:03:00,49.1,48.0,29.52,North,5,0.0,0.0,96,0.00,,,0.00,weatherlink.com 1.10,2013-11-16 08:03:00,
2013-11-16 02:18:00,49.1,48.0,29.52,West,273,0.0,1.0,96,0.00,,,0.00,weatherlink.com 1.10,2013-11-16 08:18:00,
2013-11-16 02:33:00,48.8,48.0,29.51,West,281,0.0,0.0,96,0.00,,,0.00,weatherlink.com 1.10,2013-11-16 08:33:00,
2013-11-16 02:48:00,48.5,48.0,29.51,SSW,213,0.0,1.0,96,0.00,,,0.00,weatherlink.com 1.10,2013-11-16 08:48:00,
2013-11-16 03:03:00,48.5,48.0,29.51,NNW,346,0.0,1.0,96,0.00,,,0.00,weatherlink.com 1.10,2013-11-16 09:03:00,
2013-11-16 03:18:00,48.5,48.0,29.51,NE,44,0.0,1.0,96,0.00,,,0.00,weatherlink.com 1.10,2013-11-16 09:18:00,
2013-11-16 03:33:00,48.4,47.0,29.51,NE,44,0.0,0.0,96,0.00,,,0.00,weatherlink.com 1.10,2013-11-16 09:33:00,
2013-11-16 03:48:00,48.2,47.0,29.52,WSW,248,0.0,1.0,96,0.00,,,0.00,weatherlink.com 1.10,2013-11-16 09:48:00,
2013-11-16 04:03:00,48.6,48.0,29.52,WSW,246,0.0,0.0,96,0.00,,,0.00,weatherlink.com 1.10,2013-11-16 10:03:00,
2013-11-16 04:18:00,48.8,48.0,29.52,South,186,0.0,1.0,96,0.00,,,0.00,weatherlink.com 1.10,2013-11-16 10:18:00,
2013-11-16 04:33:00,49.1,48.0,29.52,NNE,26,0.0,0.0,96,0.00,,,0.00,weatherlink.com 1.10,2013-11-16 10:33:00,
2013-11-16 04:49:00,49.2,48.0,29.52,NNE,26,0.0,0.0,96,0.00,,,0.00,weatherlink.com 1.10,2013-11-16 10:49:00,
2013-11-16 05:04:00,49.4,48.0,29.52,NNE,26,0.0,0.0,96,0.00,,,0.00,weatherlink.com 1.10,2013-11-16 11:04:00,
2013-11-16 05:19:00,49.4,48.0,29.52,NNE,19,0.0,0.0,96,0.00,,,0.00,weatherlink.com 1.10,2013-11-16 11:19:00,
2013-11-16 05:34:00,49.6,49.0,29.53,WNW,289,0.0,1.0,96,0.00,,,0.00,weatherlink.com 1.10,2013-11-16 11:34:00,
2013-11-16 05:49:00,49.6,49.0,29.53,WNW,289,0.0,0.0,96,0.00,,,0.00,weatherlink.com 1.10,2013-11-16 11:49:00,
2013-11-16 06:04:00,49.6,49.0,29.53,WNW,289,0.0,0.0,96,0.00,,,0.00,weatherlink.com 1.10,2013-11-16 12:04:00,
2013-11-16 06:19:00,49.7,49.0,29.54,WNW,289,0.0,0.0,96,0.00,,,0.00,weatherlink.com 1.10,2013-11-16 12:19:00,
2013-11-16 06:34:00,49.7,49.0,29.54,WNW,289,0.0,0.0,96,0.00,,,0.00,weatherlink.com 1.10,2013-11-16 12:34:00,
2013-11-16 06:49:00,49.8,49.0,29.54,NNE,19,0.0,0.0,96,0.00,,,0.00,weatherlink.com 1.10,2013-11-16 12:49:00,
2013-11-16 07:04:00,50.0,49.0,29.55,NW,304,0.0,0.0,96,0.00,,,0.00,weatherlink.com 1.10,2013-11-16 13:04:00,
2013-11-16 07:19:00,50.3,49.0,29.55,NNE,28,0.0,0.0,96,0.00,,,0.00,weatherlink.com 1.10,2013-11-16 13:19:00,
2013-11-16 07:34:00,50.5,50.0,29.55,NE,51,0.0,1.0,97,0.00,,,0.00,weatherlink.com 1.10,2013-11-16 13:34:00,
2013-11-16 07:49:00,50.8,50.0,29.55,East,80,0.0,0.0,96,0.00,,,0.00,weatherlink.com 1.10,2013-11-16 13:49:00,
2013-11-16 08:04:00,51.5,51.0,29.56,South,186,0.0,0.0,97,0.00,,,0.00,weatherlink.com 1.10,2013-11-16 14:04:00,
2013-11-16 08:19:00,52.2,51.0,29.57,North,351,0.0,2.0,97,0.00,,,0.00,weatherlink.com 1.10,2013-11-16 14:19:00,
2013-11-16 08:34:00,52.3,51.0,29.56,SSE,151,0.0,0.0,96,0.00,,,0.00,weatherlink.com 1.10,2013-11-16 14:34:00,
2013-11-16 08:49:00,52.9,52.0,29.56,NNW,338,0.0,3.0,96,0.00,,,0.00,weatherlink.com 1.10,2013-11-16 14:49:00,
2013-11-16 09:04:00,53.5,52.0,29.56,ESE,107,0.0,3.0,95,0.00,,,0.00,weatherlink.com 1.10,2013-11-16 15:04:00,
2013-11-16 09:19:00,54.1,53.0,29.56,South,175,0.0,4.0,94,0.00,,,0.00,weatherlink.com 1.10,2013-11-16 15:19:00,
2013-11-16 09:34:00,55.1,53.0,29.57,NE,48,1.0,3.0,93,0.00,,,0.00,weatherlink.com 1.10,2013-11-16 15:34:00,
2013-11-16 09:49:00,55.5,53.0,29.57,North,5,0.0,0.0,92,0.00,,,0.00,weatherlink.com 1.10,2013-11-16 15:49:00,
2013-11-16 10:04:00,55.5,53.0,29.56,SE,130,0.0,2.0,92,0.00,,,0.00,weatherlink.com 1.10,2013-11-16 16:04:00,
2013-11-16 10:19:00,56.1,54.0,29.55,East,94,0.0,1.0,92,0.00,,,0.00,weatherlink.com 1.10,2013-11-16 16:19:00,
2013-11-16 10:34:00,57.2,55.0,29.55,ESE,121,0.0,4.0,91,0.00,,,0.00,weatherlink.com 1.10,2013-11-16 16:34:00,
2013-11-16 10:49:00,57.9,55.0,29.53,SSE,160,0.0,1.0,90,0.00,,,0.00,weatherlink.com 1.10,2013-11-16 16:49:00,
2013-11-16 11:04:00,59.3,56.0,29.53,SW,225,0.0,1.0,90,0.00,,,0.00,weatherlink.com 1.10,2013-11-16 17:04:00,
2013-11-16 11:19:00,60.1,56.0,29.53,South,188,0.0,5.0,86,0.00,,,0.00,weatherlink.com 1.10,2013-11-16 17:19:00,
2013-11-16 11:34:00,61.0,57.0,29.52,SSE,164,0.0,4.0,87,0.00,,,0.00,weatherlink.com 1.10,2013-11-16 17:34:00,
2013-11-16 11:49:00,61.6,57.0,29.51,SE,134,0.0,3.0,85,0.00,,,0.00,weatherlink.com 1.10,2013-11-16 17:49:00,
2013-11-16 12:04:00,62.6,58.0,29.50,South,180,0.0,3.0,84,0.00,,,0.00,weatherlink.com 1.10,2013-11-16 18:04:00,
2013-11-16 12:20:00,62.8,58.0,29.49,SSE,164,0.0,4.0,83,0.00,,,0.00,weatherlink.com 1.10,2013-11-16 18:20:00,
2013-11-16 12:35:00,63.1,58.0,29.49,NE,54,0.0,2.0,84,0.00,,,0.00,weatherlink.com 1.10,2013-11-16 18:35:00,
2013-11-16 12:50:00,63.1,58.0,29.48,WSW,246,0.0,1.0,84,0.00,,,0.00,weatherlink.com 1.10,2013-11-16 18:50:00,
2013-11-16 13:05:00,63.2,59.0,29.47,SE,142,0.0,2.0,85,0.00,,,0.00,weatherlink.com 1.10,2013-11-16 19:05:00,
2013-11-16 13:20:00,63.0,59.0,29.47,South,188,0.0,3.0,85,0.00,,,0.00,weatherlink.com 1.10,2013-11-16 19:20:00,
2013-11-16 13:35:00,62.9,59.0,29.47,SE,135,0.0,2.0,86,0.00,,,0.00,weatherlink.com 1.10,2013-11-16 19:35:00,
2013-11-16 13:50:00,63.2,58.0,29.47,SSW,209,0.0,3.0,84,0.00,,,0.00,weatherlink.com 1.10,2013-11-16 19:50:00,
2013-11-16 14:05:00,63.5,60.0,29.46,East,96,0.0,0.0,87,0.00,,,0.00,weatherlink.com 1.10,2013-11-16 20:05:00,
2013-11-16 14:20:00,63.6,59.0,29.46,SSW,196,1.0,2.0,86,0.00,,,0.00,weatherlink.com 1.10,2013-11-16 20:20:00,
2013-11-16 14:35:00,64.1,59.0,29.46,South,188,0.0,6.0,84,0.00,,,0.00,weatherlink.com 1.10,2013-11-16 20:35:00,
2013-11-16 14:50:00,64.1,59.0,29.45,South,174,0.0,4.0,83,0.00,,,0.00,weatherlink.com 1.10,2013-11-16 20:50:00,
2013-11-16 15:05:00,64.0,60.0,29.45,South,174,0.0,0.0,85,0.00,,,0.00,weatherlink.com 1.10,2013-11-16 21:05:00,
2013-11-16 15:20:00,63.9,59.0,29.45,SW,221,0.0,2.0,84,0.00,,,0.00,weatherlink.com 1.10,2013-11-16 21:20:00,
2013-11-16 15:35:00,63.7,59.0,29.46,SSW,209,0.0,3.0,84,0.00,,,0.00,weatherlink.com 1.10,2013-11-16 21:35:00,
2013-11-16 15:50:00,63.2,59.0,29.46,SSW,207,0.0,6.0,86,0.00,,,0.00,weatherlink.com 1.10,2013-11-16 21:50:00,
2013-11-16 16:05:00,63.0,59.0,29.46,SW,217,1.0,3.0,86,0.00,,,0.00,weatherlink.com 1.10,2013-11-16 22:05:00,
2013-11-16 16:20:00,62.8,58.0,29.46,South,170,0.0,3.0,85,0.00,,,0.00,weatherlink.com 1.10,2013-11-16 22:20:00,
2013-11-16 16:35:00,62.5,58.0,29.46,SSW,194,0.0,3.0,86,0.00,,,0.00,weatherlink.com 1.10,2013-11-16 22:35:00,
2013-11-16 16:50:00,62.2,58.0,29.46,SSW,196,1.0,8.0,85,0.00,,,0.00,weatherlink.com 1.10,2013-11-16 22:50:00,
2013-11-16 17:05:00,61.9,58.0,29.46,SSW,209,3.0,6.0,86,0.00,,,0.00,weatherlink.com 1.10,2013-11-16 23:05:00,
2013-11-16 17:20:00,61.6,57.0,29.47,South,177,0.0,1.0,86,0.00,,,0.00,weatherlink.com 1.10,2013-11-16 23:20:00,
2013-11-16 17:35:00,61.3,57.0,29.47,South,186,0.0,5.0,87,0.00,,,0.00,weatherlink.com 1.10,2013-11-16 23:35:00,
2013-11-16 17:50:00,61.0,58.0,29.47,South,182,0.0,1.0,88,0.00,,,0.00,weatherlink.com 1.10,2013-11-16 23:50:00,
2013-11-16 18:05:00,60.6,57.0,29.48,ESE,117,0.0,1.0,88,0.00,,,0.00,weatherlink.com 1.10,2013-11-17 00:05:00,
2013-11-16 18:20:00,60.3,57.0,29.48,SSW,203,0.0,1.0,89,0.00,,,0.00,weatherlink.com 1.10,2013-11-17 00:20:00,
2013-11-16 18:35:00,59.9,57.0,29.48,SSW,203,0.0,0.0,90,0.00,,,0.00,weatherlink.com 1.10,2013-11-17 00:35:00,
2013-11-16 18:50:00,60.1,57.0,29.48,SSE,162,0.0,3.0,89,0.00,,,0.00,weatherlink.com 1.10,2013-11-17 00:50:00,
2013-11-16 19:05:00,60.1,57.0,29.48,SW,219,0.0,1.0,89,0.00,,,0.00,weatherlink.com 1.10,2013-11-17 01:05:00,
2013-11-16 19:20:00,59.9,57.0,29.48,NNW,342,0.0,1.0,90,0.00,,,0.00,weatherlink.com 1.10,2013-11-17 01:20:00,
2013-11-16 19:35:00,59.6,57.0,29.48,NW,316,0.0,0.0,90,0.00,,,0.00,weatherlink.com 1.10,2013-11-17 01:35:00,
2013-11-16 19:50:00,59.4,57.0,29.49,SW,225,0.0,0.0,91,0.00,,,0.00,weatherlink.com 1.10,2013-11-17 01:50:00,
2013-11-16 20:05:00,59.6,57.0,29.49,SE,126,0.0,1.0,91,0.00,,,0.00,weatherlink.com 1.10,2013-11-17 02:05:00,
2013-11-16 20:20:00,59.4,57.0,29.49,SE,131,0.0,0.0,91,0.00,,,0.00,weatherlink.com 1.10,2013-11-17 02:20:00,
2013-11-16 20:35:00,59.4,57.0,29.50,SSE,156,0.0,1.0,91,0.00,,,0.00,weatherlink.com 1.10,2013-11-17 02:35:00,
2013-11-16 20:50:00,59.5,57.0,29.50,SE,142,0.0,3.0,90,0.00,,,0.00,weatherlink.com 1.10,2013-11-17 02:50:00,
2013-11-16 21:05:00,59.6,57.0,29.50,SSE,158,0.0,2.0,90,0.00,,,0.00,weatherlink.com 1.10,2013-11-17 03:05:00,
2013-11-16 21:20:00,59.5,57.0,29.49,SSE,156,0.0,0.0,90,0.00,,,0.00,weatherlink.com 1.10,2013-11-17 03:20:00,
2013-11-16 21:35:00,59.1,57.0,29.48,SE,132,0.0,0.0,91,0.00,,,0.00,weatherlink.com 1.10,2013-11-17 03:35:00,
2013-11-16 21:50:00,59.0,56.0,29.48,WNW,295,0.0,1.0,91,0.00,,,0.00,weatherlink.com 1.10,2013-11-17 03:50:00,
2013-11-16 22:05:00,59.0,56.0,29.48,SE,134,0.0,2.0,91,0.00,,,0.00,weatherlink.com 1.10,2013-11-17 04:05:00,
2013-11-16 22:20:00,58.8,57.0,29.48,East,90,0.0,0.0,92,0.00,,,0.00,weatherlink.com 1.10,2013-11-17 04:20:00,
2013-11-16 22:35:00,58.7,56.0,29.47,ENE,66,0.0,1.0,92,0.00,,,0.00,weatherlink.com 1.10,2013-11-17 04:35:00,
2013-11-16 22:50:00,58.8,57.0,29.47,South,172,0.0,1.0,92,0.00,,,0.00,weatherlink.com 1.10,2013-11-17 04:50:00,
2013-11-16 23:05:00,58.8,57.0,29.46,NNE,23,0.0,2.0,92,0.00,,,0.00,weatherlink.com 1.10,2013-11-17 05:05:00,
2013-11-16 23:20:00,58.7,56.0,29.46,NNE,23,0.0,0.0,92,0.00,,,0.00,weatherlink.com 1.10,2013-11-17 05:20:00,
2013-11-16 23:35:00,58.6,56.0,29.45,NW,323,0.0,1.0,92,0.00,,,0.00,weatherlink.com 1.10,2013-11-17 05:35:00,
2013-11-16 23:50:00,58.6,56.0,29.44,West,267,0.0,2.0,92,0.00,,,0.00,weatherlink.com 1.10,2013-11-17 05:50:00,